Regional Weather Roundup
Issued by NWS

Home | Current Version | Previous Version | Graphics & Text | Print | Product List | Glossary On
Versions: 1 2 3 4 5 6 7 8 9 10 11 12 13 14 15 16 17 18 19 20 21 22 23 24 25 26 27 28 29 30 31 32 33 34 35 36 37 38 39 40 41 42 43 44 45 46 47 48 49 50
000
ASUS45 KABQ 241610
RWRNM
NEW MEXICO REGIONAL WEATHER ROUNDUP
NATIONAL WEATHER SERVICE ALBUQUERQUE NM
1000 AM MDT FRI MAR 24 2017

NOTE: "FAIR" MEANS FEW OR NO CLOUDS BELOW 12,000 FEET AGL WITH NO
       SIGNIFICANT WEATHER OR OBSTRUCTIONS TO VISION.

      THIS PRODUCT IS RELEASED AS TWO VERSIONS.  ONE VERSION NEAR
      THE TOP OF THE HOUR CONTAINING PRELIMINARY DATA FROM ALBUQUERQUE
      AND OTHER STATIONS.  A FINAL VERSION WITH ADDITIONAL DATA IS
      ISSUED ABOUT 10 MINUTES AFTER THE HOUR.

NMZ501-503-504-510>518-241700-
NORTHWEST PLATEAU/NORTHCENTRAL MOUNTAINS

CITY           SKY/WX    TMP DP  RH WIND       PRES   REMARKS
FARMINGTON     FAIR      47  28  47 W24G31    30.04R
LOS ALAMOS     FAIR      40  33  76 SE7       29.99R WCI  35
SANTA FE       FAIR      45  35  68 NW9       29.97R
TAOS             N/A     36  27  69 W13       29.98R WCI  27
ANGEL FIRE     CLOUDY    32  31  95 N7        29.95R WCI  26

$$
NMZ402-403-502-505>509-241700-
WESTCENTRAL MOUNTAINS/SOUTHWEST MOUNTAINS

CITY           SKY/WX    TMP DP  RH WIND       PRES   REMARKS
GALLUP         FAIR      42  30  62 W23G30    30.18R
GRANTS         FAIR      44  31  58 NW28G37   30.10R
SILVER CITY    FAIR      48  29  47 NW26      30.16R

$$
NMZ407-409-411-412-241700-
SOUTHERN DESERTS

CITY           SKY/WX    TMP DP  RH WIND       PRES   REMARKS
DEMING         FAIR      54  30  40 W23G32    30.15S
LAS CRUCES     FAIR      52  29  40 W22       30.13R
HOLLOMAN AFB   FAIR      57  24  27 W18       30.09R
ALAMOGORDO     FAIR      55  23  28 NW10G18   30.08R
T OR C         FAIR      54  23  30 NW23G35   30.04F

$$
NMZ519>523-241700-
CENTRAL VALLEYS/CENTRAL HIGHLANDS

CITY           SKY/WX    TMP DP  RH WIND       PRES   REMARKS
ALBUQUERQUE    PTSUNNY   51  27  39 N20G37    30.04R
DOUBLE EAGLE   PTSUNNY   48  27  43 NW37G46   30.00R
MORIARTY ARPT  FAIR      48  30  50 NW37G46   29.96R
CLINES CORNERS FAIR      39  27  62 NW40G48   29.93R WCI  26
BELEN          FAIR      54  25  32 NW26G33   30.02S
SOCORRO        FAIR      55  24  29 N15G24    30.02R

$$
NMZ524>526-539-540-241700-
SOUTHCENTRAL MOUNTAINS

CITY           SKY/WX    TMP DP  RH WIND       PRES   REMARKS
RUIDOSO        FAIR      45  23  42 NW28G52   29.97R

$$
NMZ527>531-241700-
NORTHEAST HIGHLANDS/NORTHEAST PLAINS

CITY           SKY/WX    TMP DP  RH WIND       PRES   REMARKS
LAS VEGAS      FAIR      49  27  42 N30G39    29.85R
RATON          LGT SNOW  35  31  85 N29G45    29.86R VSB 3/4 WCI  22
CLAYTON          N/A     42  38  85 NW38G48   29.68

$$
NMZ532>537-241700-
EASTCENTRAL PLAINS

CITY           SKY/WX    TMP DP  RH WIND       PRES   REMARKS
TUCUMCARI      CLOUDY    55  33  43 NW31G46   29.75R
CANNON AFB     LGT RAIN  53  35  50 W30       29.77R
CLOVIS AIRPORT CLOUDY    54  34  47 NW29G39   29.77R

$$
NMZ028-029-538-241700-
SOUTHEAST PLAINS

CITY           SKY/WX    TMP DP  RH WIND       PRES   REMARKS
ROSWELL        FAIR      65  25  22 NW25G32   29.88R
ARTESIA        FAIR      63  27  25 NW28G38   29.89R
CARLSBAD       FAIR      62  27  26 W33G44    29.89R
HOBBS          SUNNY     59  25  27 SW24G37   29.90R


$$




USA.gov is the U.S. government's official web portal to all federal, state and local government web resources and services.